Fort Eustis, VA

4:20 AM EDT on July 25, 2017 (GMT -0400)
Felker Army Air Field

Weather History for KFAF - March, 2014

Change the Weather History Date:

Monday, March 24, 2014

  Actual Average Record
Temperature  
Mean Temperature 36 °F -  
Max Temperature 42 °F 59 °F 76 °F (2016)
Min Temperature 30 °F 41 °F 30 °F (2014)
Degree Days  
Heating Degree Days 30    
Moisture  
Dew Point 19 °F    
Average Humidity 53    
Maximum Humidity 82    
Minimum Humidity 32    
Precipitation  
Precipitation 0.00 in - - ()
Sea Level Pressure  
Sea Level Pressure 30.21 in    
Wind  
Wind Speed 9 mph (North)    
Max Wind Speed 16 mph    
Max Gust Speed 23 mph    
Visibility 10 miles    
Events      
Averages and records for this station are not official NWS values.
T = Trace of Precipitation, MM = Missing Value Source: NWS Daily Summary

Daily Weather History Graph

Daily Weather History Graph

Search for Another Location

Airport or City:

Trip Planner

Search our weather history database for the weather conditions in past years. The results will help you decide how hot, cold, wet, or windy it might be!

Date:

Astronomy

Mar. 24, 2014 Rise Set
Actual Time 7:04 AM EDT 7:21 PM EDT
Civil Twilight 6:38 AM EDT 7:47 PM EDT
Nautical Twilight 6:07 AM EDT 8:18 PM EDT
Astronomical Twilight 5:36 AM EDT 8:49 PM EDT
Moon 2:24 AM EDT (3/24) 12:52 PM EDT (3/24)
Length of Visible Light 13h 09m
Length of Day
12h 17m
Last Quarter, 43% of the Moon is Illuminated
Mar 24
Last Quarter
Mar 30
New
Apr 7
First Quarter
Apr 15
Full
Apr 22
Last Quarter

Hourly Weather History & Observations

Time (EDT) Temp. Windchill Dew Point Humidity Pressure Visibility Wind Dir Wind Speed Gust Speed Precip Events Conditions
12:58 AM 38.8 °F 32.6 °F 33.8 °F 82% 30.14 in 10.0 mi North 9.2 mph 16.1 mph N/A   Clear
1:58 AM 36.3 °F 28.4 °F 24.1 °F 61% 30.17 in 10.0 mi North 11.5 mph 19.6 mph N/A   Clear
2:58 AM 35.4 °F 26.4 °F 19.9 °F 53% 30.17 in 10.0 mi North 13.8 mph 20.7 mph N/A   Clear
3:58 AM 34.5 °F 24.5 °F 17.1 °F 49% 30.18 in 10.0 mi North 16.1 mph 23.0 mph N/A   Clear
4:58 AM 32.9 °F 24.7 °F 14.9 °F 48% 30.20 in 10.0 mi North 10.4 mph 19.6 mph N/A   Clear
5:58 AM 31.5 °F 24.2 °F 14.2 °F 49% 30.23 in 10.0 mi North 8.1 mph 17.3 mph N/A   Clear
6:58 AM 30.6 °F 22.4 °F 13.6 °F 50% 30.25 in 10.0 mi North 9.2 mph - N/A   Clear
7:58 AM 30.6 °F 21.8 °F 12.9 °F 48% 30.28 in 10.0 mi North 10.4 mph 16.1 mph N/A   Clear
8:58 AM 31.1 °F 23.7 °F 12.9 °F 47% 30.30 in 10.0 mi North 8.1 mph 18.4 mph N/A   Clear
9:58 AM 32.4 °F 25.3 °F 14.7 °F 48% 30.31 in 10.0 mi NNW 8.1 mph 17.3 mph N/A   Clear
10:58 AM 34.0 °F 28.0 °F 16.3 °F 49% 30.31 in 10.0 mi NW 6.9 mph - N/A   Clear
11:58 AM 35.6 °F 29.9 °F 18.5 °F 50% 30.29 in 10.0 mi WNW 6.9 mph - N/A   Clear
12:58 PM 36.5 °F 29.7 °F 18.0 °F 47% 30.26 in 10.0 mi WNW 9.2 mph - N/A   Clear
1:58 PM 37.9 °F 32.1 °F 18.3 °F 45% 30.23 in 10.0 mi NW 8.1 mph - N/A   Clear
2:58 PM 39.6 °F 34.7 °F 18.0 °F 42% 30.21 in 10.0 mi Variable 6.9 mph - N/A   Clear
3:58 PM 40.5 °F 37.3 °F 16.9 °F 39% 30.18 in 10.0 mi WNW 4.6 mph - N/A   Clear
4:58 PM 41.7 °F 38.8 °F 13.6 °F 32% 30.17 in 10.0 mi Variable 4.6 mph - N/A   Clear
5:58 PM 40.8 °F 36.9 °F 21.0 °F 45% 30.17 in 10.0 mi ENE 5.8 mph - N/A   Clear
6:58 PM 38.8 °F 34.6 °F 20.3 °F 47% 30.17 in 10.0 mi East 5.8 mph - N/A   Clear
7:58 PM 36.3 °F 33.7 °F 22.5 °F 57% 30.18 in 10.0 mi East 3.5 mph - N/A   Clear
8:58 PM 35.4 °F 29.7 °F 23.5 °F 62% 30.19 in 10.0 mi SE 6.9 mph - N/A   Clear
9:58 PM 34.3 °F 27.0 °F 24.6 °F 68% 30.18 in 10.0 mi SE 9.2 mph - N/A   Clear
10:58 PM 33.3 °F 28.9 °F 23.9 °F 69% 30.17 in 10.0 mi ESE 4.6 mph - N/A   Clear
11:58 PM 33.1 °F 24.9 °F 25.5 °F 74% 30.17 in 10.0 mi South 10.4 mph - N/A   Clear